Location: Austin
(30.3000°N, 97.7500°W)
Time: 08:10:06
(UTC-06:00)

Fermi - Pass Details

Date: 15 November 2025
Orbit: 492 x 503 km, 25.6° (Epoch: 07 December)

Event Time Altitude Azimuth Distance (km) Brightness Sun altitude
Rises 19:49:12 0° 263° (W) 2,572 8.5 -29.1°
Reaches altitude 10° 19:51:31 10° 255° (WSW) 1,691 7.2 -29.6°
Enters shadow 19:53:11 22° 240° (WSW) 1,130 6.0 -30.0°
